When you browse on this site, cookies collect data to enhance your experience and personalize the content and advertising you see.
Visit our Privacy Policy to learn more. By continuing to use the site, you agree to this use of cookies and data.

Hourly Weather Paro

Today, 11 August, Tuesday

Time Temperature Precipitation Wind Pressure Humidity
00:00 +16°C° 0 mm 0 mps 560 mmHg 97%
01:00 +16°C° 0.1 mm 0 mps 560 mmHg 97%
02:00 +16°C° 0.1 mm 0 mps 560 mmHg 97%
03:00 +16°C° 0.1 mm 0 mps 559 mmHg 97%
04:00 +16°C° 0.1 mm 0 mps 559 mmHg 97%
05:00 +16°C° 0.1 mm 0 mps 559 mmHg 97%
06:00 +16°C° 0.1 mm 0 mps 560 mmHg 97%
07:00 +17°C° 0 mm 0 mps 560 mmHg 94%
08:00 +18°C° 0 mm 0 mps 561 mmHg 92%
09:00 +21°C° 0 mm 1 mps 561 mmHg 90%
10:00 +21°C° 0.3 mm 1 mps 562 mmHg 88%
11:00 +21°C° 0.3 mm 2 mps 562 mmHg 86%
12:00 +23°C° 0.3 mm 2 mps 562 mmHg 84%
13:00 +21°C° 0.6 mm 2 mps 561 mmHg 87%
14:00 +21°C° 0.6 mm 2 mps 560 mmHg 90%
15:00 +20°C° 0.6 mm 2 mps 560 mmHg 93%
16:00 +20°C° 0.5 mm 2 mps 560 mmHg 94%
17:00 +20°C° 0.5 mm 1 mps 559 mmHg 95%
18:00 +20°C° 0.5 mm 1 mps 559 mmHg 97%
19:00 +20°C° 0.2 mm 1 mps 560 mmHg 97%
20:00 +17°C° 0.2 mm 0 mps 560 mmHg 98%
21:00 +17°C° 0.2 mm 0 mps 561 mmHg 98%
22:00 +17°C° 0.3 mm 0 mps 561 mmHg 98%
23:00 +17°C° 0.3 mm 0 mps 561 mmHg 98%

Tomorrow, 12 August, Wednesday

Time Temperature Precipitation Wind Pressure Humidity
00:00 +17°C° 0.3 mm 0 mps 561 mmHg 98%
01:00 +17°C° 0.4 mm 0 mps 560 mmHg 98%
02:00 +16°C° 0.4 mm 0 mps 560 mmHg 98%
03:00 +16°C° 0.4 mm 0 mps 560 mmHg 98%
04:00 +16°C° 0.6 mm 0 mps 560 mmHg 98%
05:00 +16°C° 0.6 mm 0 mps 560 mmHg 98%
06:00 +16°C° 0.6 mm 0 mps 560 mmHg 98%
07:00 +17°C° 0.7 mm 0 mps 560 mmHg 96%
08:00 +18°C° 0.7 mm 0 mps 561 mmHg 94%
09:00 +18°C° 0.7 mm 0 mps 562 mmHg 93%
10:00 +20°C° 0.5 mm 1 mps 562 mmHg 93%
11:00 +21°C° 0.5 mm 1 mps 561 mmHg 93%
12:00 +21°C° 0.5 mm 1 mps 561 mmHg 94%
13:00 +21°C° 0.9 mm 1 mps 561 mmHg 93%
14:00 +21°C° 0.9 mm 1 mps 561 mmHg 93%
15:00 +20°C° 0.9 mm 1 mps 560 mmHg 93%
16:00 +20°C° 0.3 mm 1 mps 560 mmHg 94%
17:00 +20°C° 0.3 mm 1 mps 560 mmHg 96%
18:00 +18°C° 0.3 mm 0 mps 560 mmHg 97%
19:00 +17°C° 0.1 mm 0 mps 560 mmHg 98%
20:00 +17°C° 0.1 mm 0 mps 561 mmHg 98%
21:00 +17°C° 0.1 mm 0 mps 561 mmHg 98%
22:00 +17°C° 0.1 mm 0 mps 561 mmHg 98%
23:00 +17°C° 0.1 mm 0 mps 561 mmHg 98%

Day after tomorrow, 13 August, Thursday

Time Temperature Precipitation Wind Pressure Humidity
00:00 +17°C° 0.1 mm 0 mps 561 mmHg 98%
01:00 +16°C° 0.2 mm 0 mps 561 mmHg 98%
02:00 +16°C° 0.2 mm 0 mps 561 mmHg 98%
03:00 +16°C° 0.2 mm 0 mps 560 mmHg 98%
04:00 +16°C° 0.2 mm 0 mps 560 mmHg 98%
05:00 +16°C° 0.2 mm 0 mps 560 mmHg 98%
06:00 +16°C° 0.2 mm 0 mps 560 mmHg 98%
07:00 +17°C° 0.2 mm 0 mps 560 mmHg 97%
08:00 +17°C° 0.2 mm 0 mps 561 mmHg 96%
09:00 +17°C° 0.2 mm 0 mps 561 mmHg 96%
10:00 +19°C° 0.7 mm 1 mps 561 mmHg 96%
11:00 +20°C° 0.7 mm 1 mps 561 mmHg 96%
12:00 +20°C° 0.7 mm 1 mps 561 mmHg 96%
13:00 +20°C° 0.9 mm 1 mps 560 mmHg 96%
14:00 +20°C° 0.9 mm 1 mps 559 mmHg 97%
15:00 +20°C° 0.9 mm 1 mps 559 mmHg 97%
16:00 +20°C° 0.1 mm 1 mps 559 mmHg 97%
17:00 +18°C° 0.1 mm 0 mps 559 mmHg 97%
18:00 +18°C° 0.1 mm 0 mps 559 mmHg 96%
19:00 +17°C° 0 mm 0 mps 559 mmHg 97%
20:00 +16°C° 0 mm 0 mps 559 mmHg 97%
21:00 +16°C° 0 mm 0 mps 559 mmHg 97%
22:00 +16°C° 0 mm 0 mps 559 mmHg 97%
23:00 +16°C° 0 mm 0 mps 560 mmHg 97%

14 August, Friday

Time Temperature Precipitation Wind Pressure Humidity
00:00 +16°C° 0 mm 0 mps 560 mmHg 97%
01:00 +16°C° 0.1 mm 0 mps 559 mmHg 97%
02:00 +16°C° 0.1 mm 0 mps 559 mmHg 97%
03:00 +16°C° 0.1 mm 0 mps 559 mmHg 97%
04:00 +16°C° 0.1 mm 0 mps 559 mmHg 97%
05:00 +16°C° 0.1 mm 0 mps 559 mmHg 96%
06:00 +15°C° 0.1 mm 0 mps 559 mmHg 96%
07:00 +17°C° 0.2 mm 0 mps 560 mmHg 94%
08:00 +20°C° 0.2 mm 1 mps 560 mmHg 91%
09:00 +21°C° 0.2 mm 1 mps 561 mmHg 89%
10:00 +21°C° 0.5 mm 1 mps 561 mmHg 90%
11:00 +20°C° 0.5 mm 2 mps 560 mmHg 91%
12:00 +20°C° 0.5 mm 2 mps 560 mmHg 91%
13:00 +20°C° 0.4 mm 2 mps 559 mmHg 91%
14:00 +20°C° 0.4 mm 2 mps 559 mmHg 90%
15:00 +20°C° 0.4 mm 2 mps 559 mmHg 90%
16:00 +21°C° 0.5 mm 1 mps 558 mmHg 92%
17:00 +20°C° 0.5 mm 1 mps 558 mmHg 95%
18:00 +20°C° 0.5 mm 1 mps 558 mmHg 97%
19:00 +19°C° 0.3 mm 1 mps 558 mmHg 98%
20:00 +19°C° 0.3 mm 1 mps 559 mmHg 98%
21:00 +19°C° 0.3 mm 1 mps 559 mmHg 98%
22:00 +16°C° 0.5 mm 0 mps 559 mmHg 98%
23:00 +16°C° 0.5 mm 0 mps 559 mmHg 97%

15 August, Saturday

Time Temperature Precipitation Wind Pressure Humidity
00:00 +16°C° 0.5 mm 0 mps 559 mmHg 97%
01:00 +16°C° 1.6 mm 0 mps 559 mmHg 97%
02:00 +16°C° 1.6 mm 0 mps 558 mmHg 98%
03:00 +16°C° 1.6 mm 0 mps 558 mmHg 98%
04:00 +16°C° 1.8 mm 0 mps 558 mmHg 98%
05:00 +16°C° 1.8 mm 0 mps 558 mmHg 97%
06:00 +16°C° 1.8 mm 0 mps 558 mmHg 97%
07:00 +16°C° 1.5 mm 0 mps 559 mmHg 96%
08:00 +17°C° 1.5 mm 0 mps 559 mmHg 95%
09:00 +17°C° 1.5 mm 0 mps 560 mmHg 95%
10:00 +17°C° 1.2 mm 0 mps 560 mmHg 95%
11:00 +17°C° 1.2 mm 0 mps 560 mmHg 95%
12:00 +17°C° 1.2 mm 0 mps 560 mmHg 95%
13:00 +20°C° 0.3 mm 1 mps 560 mmHg 94%
14:00 +20°C° 0.3 mm 1 mps 560 mmHg 92%
15:00 +21°C° 0.3 mm 1 mps 560 mmHg 90%
16:00 +20°C° 0.1 mm 1 mps 559 mmHg 92%
17:00 +20°C° 0.1 mm 1 mps 559 mmHg 93%
18:00 +20°C° 0.1 mm 1 mps 559 mmHg 95%
19:00 +19°C° 0.2 mm 1 mps 559 mmHg 96%
20:00 +19°C° 0.2 mm 1 mps 560 mmHg 97%
21:00 +19°C° 0.2 mm 1 mps 560 mmHg 98%
22:00 +18°C° 0.8 mm 1 mps 560 mmHg 98%
23:00 +18°C° 0.8 mm 1 mps 560 mmHg 99%

16 August, Sunday

Time Temperature Precipitation Wind Pressure Humidity
00:00 +18°C° 0.8 mm 1 mps 560 mmHg 99%
01:00 +16°C° 1.1 mm 0 mps 560 mmHg 99%
02:00 +16°C° 1.1 mm 0 mps 559 mmHg 99%
03:00 +16°C° 1.1 mm 0 mps 559 mmHg 98%
04:00 +16°C° 0.6 mm 0 mps 559 mmHg 98%
05:00 +16°C° 0.6 mm 0 mps 560 mmHg 98%
06:00 +16°C° 0.6 mm 0 mps 560 mmHg 97%
07:00 +17°C° 0.1 mm 0 mps 560 mmHg 95%
08:00 +17°C° 0.1 mm 0 mps 561 mmHg 93%
09:00 +18°C° 0.1 mm 0 mps 561 mmHg 90%
10:00 +21°C° 0.3 mm 1 mps 561 mmHg 88%
11:00 +21°C° 0.3 mm 2 mps 561 mmHg 85%
12:00 +23°C° 0.3 mm 2 mps 562 mmHg 83%
13:00 +23°C° 0.4 mm 2 mps 561 mmHg 83%
14:00 +23°C° 0.4 mm 2 mps 561 mmHg 83%
15:00 +23°C° 0.4 mm 2 mps 560 mmHg 83%
16:00 +22°C° 0.4 mm 1 mps 560 mmHg 88%
17:00 +21°C° 0.4 mm 1 mps 560 mmHg 92%
18:00 +20°C° 0.4 mm 1 mps 560 mmHg 97%
19:00 +20°C° 0.4 mm 1 mps 560 mmHg 97%
20:00 +19°C° 0.4 mm 1 mps 560 mmHg 98%
21:00 +19°C° 0.4 mm 1 mps 561 mmHg 99%
22:00 +17°C° 1.1 mm 0 mps 561 mmHg 98%
23:00 +16°C° 1.1 mm 0 mps 561 mmHg 98%
Show more